QPF
0.00 0.00 0.00 0.00 0.00 0.00 0.00 0.00 0.00 0.00 0.00 0.00 0.00 0.00 0.00 0.00 0.00 0.01 0.00 0.00 0.00 0.00 0.00 0.00 0.00 0.00 0.00 0.00 0.00 0.00 0.00 0.01 0.00 0.00 0.00 0.01 0.01 0.01 0.00 0.00 0.00 0.00 0.00 0.00 0.00 0.00 0.00 0.00 0.00
0.00 0.00 0.00 0.00 0.00 0.00 0.00 0.00 0.00 0.00 0.00 0.00 0.00 0.00 0.00 0.00 0.00 0.00 0.00 0.00 0.00 0.00 0.00 0.00 0.00 0.00 0.01 0.00 0.00 0.00 0.00 0.01 0.00 0.00 0.00 0.00 0.00 0.00 0.01 0.00 0.00 0.00 0.00 0.00 0.00 0.00 0.00 0.00 0.00
0.00 0.00 0.00 0.00 0.00 0.00 0.00 0.00 0.00 0.00 0.00 0.00 0.00 0.00 0.00 0.00 0.00 0.00 0.00 0.00 0.00 0.00 0.00 0.00 0.00 0.00 0.00 0.00 0.00 0.00 0.00 0.00 0.00 0.00 0.00 0.00 0.00 0.00 0.00 0.00 0.00 0.00 0.00 0.00 0.00 0.00 0.00 0.00 0.00
0.00 0.00 0.00 0.00 0.00 0.00 0.00 0.00 0.00 0.00 0.00 0.00 0.00 0.00 0.00 0.00 0.00 0.00 0.00 0.00 0.00 0.00 0.00 0.00 0.00 0.00 0.00 0.00 0.00 0.01 0.00 0.01 0.00 0.00 0.00 0.01 0.01 0.00 0.00 0.00 0.00 0.00 0.00 0.00 0.00 0.00 0.00 0.00 0.00
0.00 0.00 0.00 0.00 0.00 0.00 0.00 0.00 0.00 0.00 0.00 0.00 0.00 0.00 0.00 0.00 0.00 0.00 0.00 0.00 0.00 0.00 0.00 0.00 0.00 0.00 0.00 0.00 0.00 0.00 0.00 0.01 0.00 0.00 0.00 0.01 0.04 0.01 0.01 0.00 0.00 0.00 0.00 0.00 0.00 0.00 0.00 0.00 0.00
0.00 0.00 0.00 0.00 0.00 0.00 0.00 0.00 0.00 0.00 0.00 0.00 0.00 0.00 0.00 0.00 0.00 0.00 0.00 0.00 0.00 0.00 0.00 0.00 0.00 0.00 0.00 0.01 0.00 0.00 0.00 0.00 0.00 0.00 0.00 0.01 0.04 0.00 0.03 0.02 0.00 0.00 0.00 0.00 0.00 0.00 0.00 0.00 0.00
0.00 0.00 0.00 0.00 0.00 0.00 0.00 0.00 0.00 0.00 0.00 0.00 0.00 0.00 0.00 0.00 0.00 0.00 0.00 0.00 0.00 0.00 0.00 0.00 0.00 0.00 0.00 0.00 0.00 0.00 0.00 0.00 0.00 0.00 0.00 0.00 0.03 0.02 0.02 0.04 0.01 0.00 0.00 0.00 0.00 0.00 0.00 0.00 0.00
0.00 0.00 0.00 0.00 0.00 0.00 0.00 0.00 0.00 0.00 0.00 0.00 0.00 0.00 0.00 0.00 0.00 0.00 0.00 0.00 0.00 0.00 0.00 0.00 0.00 0.00 0.00 0.00 0.00 0.00 0.00 0.00 0.00 0.00 0.00 0.00 0.00 0.02 0.06 0.04 0.03 0.02 0.00 0.00 0.00 0.00 0.00 0.00 0.00
0.00 0.00 0.00 0.00 0.00 0.00 0.00 0.00 0.00 0.00 0.00 0.00 0.00 0.00 0.00 0.00 0.00 0.00 0.00 0.00 0.00 0.00 0.00 0.00 0.00 0.00 0.00 0.00 0.00 0.00 0.00 0.00 0.00 0.00 0.00 0.00 0.00 0.00 0.03 0.03 0.06 0.06 0.02 0.00 0.00 0.00 0.00 0.00 0.00
0.00 0.00 0.00 0.00 0.00 0.00 0.00 0.00 0.00 0.00 0.00 0.00 0.00 0.00 0.00 0.00 0.00 0.00 0.00 0.00 0.00 0.00 0.00 0.00 0.00 0.00 0.00 0.00 0.00 0.00 0.00 0.00 0.00 0.00 0.00 0.00 0.00 0.01 0.04 0.05 0.02 0.02 0.02 0.01 0.00 0.00 0.00 0.00 0.00
0.00 0.00 0.00 0.00 0.00 0.00 0.00 0.00 0.00 0.00 0.00 0.00 0.00 0.00 0.00 0.00 0.00 0.00 0.00 0.00 0.00 0.00 0.00 0.00 0.00 0.00 0.00 0.00 0.00 0.00 0.00 0.00 0.00 0.00 0.00 0.00 0.00 0.00 0.01 0.04 0.00 0.00 0.00 0.01 0.00 0.00 0.00 0.00 0.00
0.00 0.00 0.00 0.00 0.00 0.00 0.00 0.00 0.00 0.00 0.00 0.00 0.00 0.00 0.00 0.00 0.00 0.00 0.00 0.00 0.00 0.00 0.00 0.00 0.00 0.00 0.00 0.00 0.00 0.02 0.03 0.03 0.00 0.01 0.01 0.00 0.00 0.00 0.01 0.03 0.01 0.03 0.03 0.05 0.06 0.10 0.02 0.00 0.00
0.00 0.00 0.00 0.00 0.00 0.00 0.00 0.00 0.00 0.00 0.00 0.00 0.00 0.00 0.00 0.00 0.00 0.00 0.00 0.00 0.00 0.00 0.00 0.00 0.00 0.00 0.00 0.00 0.00 0.01 0.00 0.00 0.00 0.04 0.04 0.02 0.01 0.00 0.01 0.01 0.02 0.04 0.05 0.03 0.09 0.17 0.05 0.03 0.00
0.00 0.00 0.00 0.00 0.00 0.00 0.00 0.00 0.00 0.00 0.00 0.00 0.00 0.00 0.00 0.00 0.00 0.00 0.00 0.00 0.00 0.00 0.00 0.00 0.00 0.00 0.00 0.00 0.01 0.01 0.00 0.00 0.00 0.00 0.00 0.00 0.02 0.01 0.00 0.01 0.03 0.03 0.04 0.13 0.18 0.18 0.05 0.00 0.00
0.00 0.00 0.00 0.00 0.00 0.00 0.00 0.00 0.00 0.00 0.00 0.00 0.00 0.00 0.00 0.00 0.00 0.00 0.00 0.00 0.00 0.00 0.00 0.00 0.00 0.00 0.00 0.02 0.02 0.07 0.01 0.00 0.00 0.00 0.00 0.00 0.02 0.00 0.01 0.02 0.02 0.07 0.17 0.22 0.12 0.07 0.09 0.07 0.00
0.00 0.00 0.00 0.00 0.00 0.00 0.00 0.00 0.00 0.00 0.00 0.00 0.00 0.00 0.00 0.00 0.00 0.00 0.00 0.00 0.00 0.00 0.00 0.00 0.00 0.00 0.00 0.01 0.01 0.04 0.00 0.01 0.00 0.00 0.00 0.00 0.01 0.02 0.07 0.06 0.02 0.09 0.18 0.21 0.14 0.15 0.09 0.02 0.00
0.00 0.00 0.00 0.00 0.00 0.00 0.00 0.00 0.00 0.00 0.00 0.00 0.00 0.00 0.00 0.00 0.00 0.00 0.00 0.00 0.00 0.00 0.00 0.00 0.00 0.00 0.00 0.00 0.07 0.06 0.01 0.01 0.00 0.00 0.00 0.00 0.00 0.03 0.10 0.06 0.05 0.11 0.15 0.09 0.04 0.01 0.00 0.00 0.00
0.00 0.00 0.00 0.00 0.00 0.00 0.00 0.00 0.00 0.00 0.00 0.00 0.00 0.00 0.00 0.00 0.00 0.00 0.00 0.00 0.00 0.00 0.00 0.00 0.00 0.00 0.00 0.00 0.08 0.15 0.18 0.11 0.01 0.00 0.00 0.00 0.00 0.01 0.02 0.02 0.04 0.04 0.02 0.00 0.00 0.00 0.00 0.00 0.00
0.00 0.00 0.00 0.00 0.00 0.00 0.00 0.00 0.00 0.00 0.00 0.00 0.00 0.00 0.00 0.00 0.00 0.00 0.00 0.00 0.00 0.00 0.00 0.00 0.00 0.00 0.00 0.00 0.01 0.03 0.03 0.08 0.05 0.00 0.00 0.00 0.00 0.01 0.00 0.00 0.00 0.00 0.00 0.00 0.00 0.00 0.00 0.00 0.00
0.00 0.00 0.00 0.00 0.00 0.00 0.00 0.00 0.00 0.00 0.00 0.00 0.00 0.00 0.00 0.00 0.00 0.00 0.00 0.00 0.00 0.00 0.00 0.00 0.00 0.00 0.00 0.00 0.00 0.10 0.07 0.09 0.02 0.02 0.00 0.00 0.00 0.00 0.00 0.00 0.00 0.00 0.00 0.00 0.00 0.00 0.00 0.00 0.00
0.00 0.00 0.00 0.00 0.00 0.00 0.00 0.00 0.00 0.00 0.00 0.00 0.00 0.00 0.00 0.00 0.00 0.00 0.00 0.00 0.00 0.00 0.00 0.00 0.00 0.00 0.00 0.00 0.00 0.10 0.17 0.23 0.23 0.07 0.00 0.00 0.00 0.00 0.00 0.00 0.00 0.00 0.00 0.00 0.00 0.00 0.00 0.00 0.00
0.00 0.00 0.00 0.00 0.00 0.00 0.00 0.00 0.00 0.00 0.00 0.00 0.00 0.00 0.00 0.00 0.00 0.00 0.00 0.00 0.00 0.00 0.00 0.00 0.00 0.00 0.00 0.00 0.00 0.04 0.03 0.02 0.02 0.01 0.00 0.00 0.00 0.00 0.00 0.00 0.00 0.00 0.00 0.00 0.00 0.00 0.01 0.01 0.00
0.00 0.00 0.00 0.00 0.00 0.00 0.00 0.00 0.00 0.00 0.00 0.00 0.00 0.00 0.00 0.00 0.00 0.00 0.00 0.00 0.00 0.00 0.00 0.00 0.00 0.00 0.00 0.00 0.00 0.06 0.10 0.08 0.07 0.12 0.03 0.00 0.00 0.00 0.00 0.00 0.00 0.00 0.00 0.00 0.01 0.00 0.00 0.01 0.01
0.00 0.00 0.00 0.00 0.00 0.00 0.00 0.00 0.00 0.00 0.00 0.00 0.00 0.00 0.00 0.00 0.00 0.00 0.00 0.00 0.00 0.00 0.00 0.00 0.00 0.00 0.00 0.00 0.00 0.02 0.03 0.11 0.32 0.19 0.17 0.04 0.00 0.00 0.00 0.00 0.00 0.00 0.00 0.00 0.00 0.00 0.01 0.01 0.00
0.00 0.00 0.00 0.00 0.00 0.00 0.00 0.00 0.00 0.00 0.00 0.00 0.00 0.00 0.00 0.00 0.00 0.00 0.00 0.00 0.00 0.00 0.00 0.00 0.00 0.00 0.01 0.02 0.02 0.01 0.01 0.01 0.10 0.14 0.11 0.04 0.00 0.01 0.01 0.00 0.00 0.00 0.00 0.00 0.00 0.00 0.00 0.00 0.00
0.00 0.00 0.00 0.01 0.00 0.00 0.00 0.00 0.00 0.00 0.00 0.00 0.00 0.00 0.00 0.00 0.00 0.00 0.00 0.00 0.00 0.00 0.00 0.00 0.00 0.00 0.00 0.01 0.02 0.04 0.03 0.04 0.11 0.32 0.41 0.25 0.08 0.03 0.00 0.00 0.00 0.00 0.00 0.00 0.00 0.01 0.00 0.00 0.00
0.00 0.00 0.00 0.00 0.00 0.00 0.00 0.00 0.00 0.00 0.00 0.00 0.00 0.00 0.00 0.00 0.00 0.00 0.00 0.00 0.00 0.00 0.00 0.00 0.00 0.01 0.01 0.02 0.02 0.02 0.03 0.07 0.04 0.18 0.28 0.34 0.22 0.11 0.00 0.00 0.00 0.00 0.00 0.00 0.01 0.01 0.00 0.00 0.02
0.00 0.00 0.00 0.00 0.00 0.02 0.00 0.00 0.00 0.00 0.00 0.00 0.00 0.00 0.00 0.00 0.00 0.00 0.00 0.00 0.00 0.00 0.00 0.00 0.00 0.01 0.04 0.07 0.06 0.06 0.06 0.06 0.08 0.07 0.02 0.02 0.11 0.16 0.06 0.00 0.00 0.00 0.00 0.01 0.01 0.00 0.01 0.02 0.03
0.00 0.00 0.00 0.00 0.01 0.02 0.01 0.00 0.00 0.00 0.00 0.00 0.00 0.00 0.00 0.00 0.00 0.00 0.00 0.00 0.00 0.00 0.00 0.00 0.00 0.02 0.02 0.06 0.12 0.09 0.10 0.11 0.14 0.14 0.08 0.02 0.01 0.06 0.09 0.02 0.00 0.00 0.01 0.01 0.00 0.01 0.01 0.00 0.00
0.00 0.00 0.00 0.00 0.01 0.00 0.00 0.00 0.00 0.00 0.00 0.00 0.00 0.00 0.00 0.00 0.00 0.00 0.00 0.00 0.00 0.00 0.00 0.00 0.00 0.01 0.03 0.03 0.15 0.10 0.12 0.10 0.09 0.04 0.01 0.00 0.04 0.07 0.08 0.05 0.02 0.02 0.01 0.00 0.01 0.01 0.00 0.00 0.00
MSLP
1009.26 1008.38 1008.06 1007.45 1006.89 1004.72 1002.71 1002.56 1002.22 1002.09 1002.00 1002.46 1002.83 1002.56 1002.59 1002.57 1002.87 1004.50 1006.12 1006.12 1006.01 1006.67 1007.25 1008.28 1008.82 1009.18 1009.58 1009.91 1010.22 1010.35 1010.53 1010.69 1010.84 1010.99 1011.04 1011.28 1011.35 1011.45 1011.51 1011.76 1011.88 1011.85 1011.80 1011.83 1011.75 1011.71 1011.71 1011.70 1011.67
1008.73 1008.33 1007.85 1006.56 1005.35 1002.99 1002.01 1002.44 1002.47 1002.35 1002.69 1002.96 1002.90 1002.64 1002.45 1002.67 1003.44 1004.80 1005.59 1006.40 1006.36 1006.57 1007.11 1007.91 1008.80 1009.20 1009.56 1009.90 1010.25 1010.41 1010.57 1010.75 1010.96 1011.04 1011.13 1011.34 1011.47 1011.59 1011.56 1011.73 1011.92 1011.99 1011.99 1011.97 1011.97 1012.02 1012.01 1011.98 1012.01
1008.78 1008.17 1007.05 1005.58 1003.98 1002.61 1001.93 1002.50 1002.53 1003.10 1003.12 1003.10 1002.74 1002.88 1002.66 1002.98 1003.74 1004.28 1005.40 1006.23 1006.54 1006.71 1007.04 1007.73 1008.93 1009.34 1009.72 1010.02 1010.26 1010.56 1010.75 1011.01 1011.11 1011.26 1011.36 1011.55 1011.67 1011.74 1011.79 1011.92 1012.01 1012.04 1012.08 1012.11 1012.09 1012.16 1012.25 1012.13 1012.23
1008.16 1007.39 1006.59 1005.38 1003.45 1003.20 1002.88 1003.02 1003.52 1003.29 1003.22 1003.41 1003.08 1002.61 1003.18 1004.14 1004.07 1004.77 1005.80 1006.26 1006.46 1006.76 1007.09 1008.29 1008.97 1009.50 1009.82 1010.14 1010.39 1010.55 1010.86 1011.11 1011.25 1011.40 1011.51 1011.55 1011.75 1011.98 1012.06 1012.11 1012.19 1012.22 1012.33 1012.36 1012.49 1012.50 1012.53 1012.45 1012.45
1007.89 1006.86 1005.47 1004.40 1003.59 1003.58 1003.54 1003.95 1004.07 1003.68 1003.42 1003.32 1003.46 1002.64 1003.10 1004.58 1005.14 1005.29 1005.78 1006.12 1006.31 1006.75 1007.17 1008.51 1009.26 1009.67 1009.91 1010.13 1010.47 1010.70 1010.89 1011.06 1011.36 1011.58 1011.60 1011.57 1011.77 1011.97 1012.13 1012.31 1012.43 1012.58 1012.55 1012.54 1012.54 1012.62 1012.63 1012.78 1012.69
1007.16 1006.60 1004.80 1003.61 1003.36 1003.80 1003.83 1004.17 1004.09 1003.92 1003.63 1003.42 1003.51 1003.13 1003.47 1004.76 1005.08 1005.58 1005.88 1005.99 1006.09 1006.55 1006.99 1007.80 1009.23 1009.78 1010.00 1010.18 1010.49 1010.66 1010.85 1011.06 1011.42 1011.68 1011.85 1011.83 1011.83 1011.81 1012.14 1012.37 1012.58 1012.72 1012.65 1012.79 1012.89 1012.83 1012.79 1012.95 1013.01
1007.33 1006.37 1004.93 1004.44 1004.00 1003.89 1004.02 1004.61 1004.09 1004.36 1004.03 1003.86 1004.37 1003.47 1003.35 1004.56 1005.43 1005.52 1005.63 1005.80 1006.28 1006.63 1007.25 1007.73 1008.92 1009.54 1010.00 1010.18 1010.37 1010.51 1010.87 1011.21 1011.45 1011.58 1011.79 1011.93 1011.97 1012.06 1012.11 1012.35 1012.52 1012.81 1012.86 1012.97 1013.13 1013.04 1013.10 1013.09 1013.22
1007.88 1006.90 1005.30 1004.67 1004.19 1004.25 1004.99 1005.11 1005.39 1005.07 1004.39 1005.00 1004.68 1003.53 1003.70 1004.84 1005.55 1005.62 1005.70 1005.89 1006.29 1006.68 1007.36 1007.81 1008.44 1009.11 1009.54 1009.90 1010.39 1010.57 1010.90 1011.09 1011.36 1011.58 1011.75 1011.90 1011.94 1012.06 1012.36 1012.45 1012.58 1012.73 1012.89 1012.97 1013.04 1013.25 1013.22 1013.21 1013.34
1008.36 1007.11 1005.55 1005.14 1005.34 1005.04 1005.82 1005.54 1005.41 1005.65 1005.51 1005.14 1004.94 1004.75 1004.69 1005.49 1006.01 1005.91 1005.98 1006.02 1006.47 1006.81 1007.15 1007.48 1007.93 1008.43 1009.04 1009.43 1010.05 1010.78 1010.96 1011.16 1011.38 1011.49 1011.57 1011.72 1011.37 1011.53 1011.81 1012.11 1012.39 1012.77 1012.86 1013.00 1013.11 1013.26 1013.26 1013.39 1013.44
1008.03 1007.02 1005.89 1006.31 1006.31 1006.11 1006.21 1006.16 1005.92 1005.84 1005.11 1004.87 1004.79 1004.57 1004.79 1005.17 1005.35 1005.32 1005.62 1005.73 1006.18 1006.80 1007.23 1007.43 1007.71 1007.87 1008.16 1008.52 1009.27 1010.22 1010.35 1010.85 1010.94 1010.88 1010.88 1011.13 1010.52 1010.57 1011.08 1011.78 1012.24 1012.67 1012.87 1013.05 1013.20 1013.35 1013.36 1013.18 1012.62
1007.68 1007.08 1006.90 1006.78 1007.07 1006.97 1006.65 1006.36 1005.98 1005.86 1005.49 1005.07 1005.14 1005.19 1005.20 1005.21 1005.04 1004.80 1004.86 1004.72 1005.46 1006.15 1006.96 1007.42 1007.67 1008.04 1008.30 1008.32 1008.57 1009.11 1009.39 1009.83 1010.12 1010.24 1010.19 1010.34 1010.15 1010.52 1010.78 1011.71 1012.04 1012.17 1012.59 1012.75 1012.97 1013.12 1012.88 1012.22 1012.09
1008.11 1007.37 1007.53 1007.46 1007.62 1007.70 1007.34 1006.85 1006.44 1006.01 1005.66 1005.61 1005.74 1005.97 1005.78 1005.42 1005.03 1004.78 1004.45 1004.38 1004.45 1004.81 1006.06 1007.03 1007.47 1007.67 1007.85 1008.05 1008.51 1009.24 1009.53 1009.73 1009.57 1009.58 1010.03 1010.51 1010.42 1010.45 1010.58 1011.10 1011.23 1011.46 1011.92 1012.04 1012.33 1012.50 1012.00 1011.99 1011.98
1007.70 1007.32 1007.53 1007.40 1007.71 1007.60 1007.29 1006.82 1006.45 1006.02 1005.75 1005.79 1005.88 1006.01 1005.56 1005.38 1005.31 1005.05 1004.90 1004.79 1004.57 1004.38 1005.10 1006.45 1007.34 1007.53 1007.80 1007.81 1008.22 1008.68 1008.61 1009.31 1009.35 1009.53 1010.30 1010.59 1010.44 1010.68 1010.56 1011.01 1010.90 1011.18 1011.73 1011.83 1011.85 1012.42 1012.43 1012.75 1012.11
1007.57 1007.70 1007.43 1007.25 1007.22 1007.27 1007.11 1006.70 1006.45 1005.54 1005.95 1005.84 1005.56 1005.29 1005.13 1005.44 1005.48 1005.35 1005.14 1004.91 1004.68 1004.48 1004.59 1005.23 1006.34 1007.11 1007.44 1007.68 1007.40 1008.17 1008.30 1007.96 1008.35 1008.94 1009.75 1009.93 1010.21 1010.74 1010.67 1010.65 1010.73 1011.07 1011.07 1011.55 1012.00 1012.66 1012.67 1012.54 1011.87
1008.12 1007.55 1006.78 1006.28 1006.20 1006.63 1007.22 1006.36 1005.62 1005.63 1005.76 1005.56 1005.21 1004.85 1004.67 1005.28 1005.71 1005.46 1005.34 1005.60 1005.18 1004.60 1004.37 1004.54 1005.50 1005.52 1006.76 1007.05 1007.48 1007.69 1007.99 1007.72 1008.01 1008.37 1008.74 1009.05 1009.34 1010.11 1010.35 1010.38 1010.74 1011.06 1011.33 1011.63 1012.02 1012.16 1012.21 1012.19 1011.88
1007.63 1006.91 1006.09 1005.91 1006.42 1006.63 1007.28 1005.22 1004.46 1005.23 1005.59 1005.23 1005.17 1005.01 1004.83 1005.53 1006.00 1006.11 1006.69 1006.36 1006.03 1005.85 1005.34 1004.69 1004.64 1004.92 1005.59 1006.23 1006.77 1007.24 1007.29 1007.58 1007.67 1007.75 1008.16 1008.70 1009.11 1009.69 1010.06 1010.40 1010.87 1011.24 1011.64 1011.23 1011.60 1011.93 1012.20 1011.88 1011.60
1006.14 1005.50 1005.16 1004.93 1005.57 1006.51 1006.58 1005.20 1004.92 1005.10 1005.14 1005.02 1005.06 1005.11 1005.54 1006.13 1006.50 1007.20 1007.37 1007.05 1006.72 1006.35 1005.98 1005.69 1005.10 1004.85 1004.78 1005.18 1005.76 1006.49 1006.65 1006.80 1007.19 1007.26 1007.63 1008.06 1008.75 1009.20 1010.04 1010.48 1010.70 1010.96 1011.63 1011.76 1011.62 1011.57 1011.78 1011.43 1011.87
1005.69 1005.41 1004.90 1004.62 1005.17 1005.63 1005.70 1005.00 1005.08 1004.98 1004.78 1004.83 1004.83 1005.32 1006.07 1006.83 1007.38 1007.51 1007.63 1007.49 1007.15 1006.89 1006.39 1006.12 1005.77 1005.22 1004.48 1004.45 1005.23 1006.08 1006.17 1006.49 1006.64 1006.96 1007.24 1007.72 1008.53 1008.89 1009.53 1009.99 1010.33 1010.86 1011.63 1012.05 1011.75 1011.78 1011.76 1011.59 1011.96
1007.06 1006.73 1005.87 1005.37 1005.43 1005.47 1005.37 1004.93 1004.75 1004.64 1004.79 1004.99 1005.09 1006.13 1006.91 1007.26 1007.63 1008.07 1008.06 1007.80 1007.72 1007.25 1006.82 1006.35 1006.09 1005.60 1004.62 1004.19 1004.37 1005.19 1005.65 1006.21 1006.65 1006.58 1006.99 1007.63 1008.28 1008.68 1009.13 1009.21 1009.57 1010.07 1011.17 1011.91 1011.84 1011.74 1011.90 1012.09 1012.31
1007.76 1007.04 1006.21 1005.58 1005.51 1005.91 1005.56 1004.86 1004.76 1004.49 1004.45 1005.33 1006.60 1007.43 1008.01 1008.06 1008.11 1008.17 1008.49 1008.33 1008.15 1007.98 1007.76 1007.06 1006.30 1005.70 1005.02 1004.27 1003.99 1004.11 1004.80 1005.25 1005.93 1006.20 1006.61 1007.18 1007.79 1008.32 1008.67 1009.17 1009.67 1010.12 1010.90 1011.91 1012.04 1012.08 1012.09 1012.49 1012.66
1007.83 1007.37 1006.66 1006.33 1006.09 1005.79 1005.31 1004.01 1003.92 1004.43 1005.82 1006.87 1007.73 1008.54 1008.83 1008.89 1008.98 1008.88 1008.83 1008.76 1008.51 1008.21 1008.12 1007.54 1006.83 1005.89 1005.14 1004.57 1003.82 1004.00 1004.58 1004.53 1004.78 1005.54 1006.37 1006.78 1007.50 1008.05 1008.46 1009.02 1009.64 1009.98 1010.73 1011.81 1012.02 1012.13 1012.58 1012.71 1013.15
1007.43 1007.45 1006.98 1006.75 1006.54 1005.42 1005.35 1003.23 1003.96 1004.69 1005.66 1006.92 1008.00 1008.77 1009.15 1009.38 1009.39 1009.09 1009.09 1009.18 1008.88 1008.69 1008.22 1007.84 1007.42 1006.71 1004.88 1004.38 1003.79 1003.72 1004.10 1004.20 1004.46 1005.05 1005.67 1006.27 1007.05 1007.88 1008.34 1008.82 1009.21 1009.96 1010.92 1011.46 1012.01 1012.23 1012.54 1012.64 1013.19
1007.69 1007.99 1008.21 1007.68 1006.93 1006.25 1005.04 1004.28 1003.46 1003.99 1004.65 1006.53 1008.37 1009.42 1009.72 1009.86 1009.75 1009.52 1009.42 1009.27 1009.21 1009.10 1008.66 1007.96 1007.41 1006.51 1005.92 1004.14 1003.62 1003.75 1004.59 1004.23 1004.35 1004.94 1005.61 1005.88 1006.61 1007.61 1008.36 1008.73 1009.21 1009.85 1010.91 1011.28 1011.64 1012.01 1012.20 1012.34 1012.83
1008.84 1008.87 1008.56 1008.04 1007.25 1005.92 1005.20 1004.87 1003.69 1003.95 1004.71 1006.81 1008.65 1009.69 1010.40 1010.49 1010.43 1010.23 1009.90 1009.47 1009.26 1009.29 1009.16 1008.55 1007.61 1006.82 1006.19 1005.27 1003.69 1003.57 1004.09 1004.46 1004.63 1004.83 1005.30 1005.48 1006.35 1007.32 1008.24 1008.74 1009.19 1009.80 1010.55 1011.05 1011.58 1012.02 1012.21 1012.58 1012.88
1009.52 1009.69 1008.64 1007.75 1006.78 1004.98 1005.03 1004.56 1004.18 1006.15 1007.49 1008.61 1009.62 1010.45 1010.80 1010.95 1010.83 1010.86 1010.38 1009.88 1009.45 1009.16 1009.38 1009.11 1008.08 1007.24 1006.57 1005.93 1005.23 1004.15 1003.83 1004.03 1004.27 1004.78 1005.17 1005.83 1006.56 1007.44 1008.03 1008.59 1009.16 1009.88 1010.55 1011.18 1011.66 1012.06 1012.31 1012.71 1013.30
1009.90 1009.81 1009.31 1008.27 1007.37 1006.25 1005.90 1006.24 1006.11 1008.19 1009.13 1009.94 1010.64 1011.02 1011.01 1011.33 1011.29 1011.35 1010.83 1010.34 1009.90 1009.46 1009.32 1009.35 1008.59 1007.60 1007.02 1006.71 1006.03 1005.14 1004.38 1004.31 1004.47 1004.65 1005.10 1006.05 1006.99 1007.28 1008.01 1008.60 1009.32 1009.99 1010.54 1011.16 1011.64 1012.01 1012.39 1013.10 1013.53
1010.61 1010.03 1010.19 1010.03 1009.34 1008.27 1007.67 1007.16 1008.53 1009.23 1010.02 1010.44 1010.71 1011.11 1011.38 1011.61 1011.48 1011.33 1010.95 1010.56 1010.10 1009.64 1009.23 1009.08 1008.81 1008.10 1007.36 1006.96 1006.41 1005.61 1005.11 1004.98 1005.07 1005.58 1005.67 1007.12 1006.97 1008.44 1007.70 1008.61 1009.18 1009.85 1010.67 1011.35 1011.68 1012.05 1012.64 1013.23 1013.66
1012.46 1011.69 1011.39 1011.15 1010.80 1009.52 1008.34 1007.59 1008.60 1010.06 1010.43 1010.95 1011.07 1011.51 1011.63 1011.76 1011.74 1011.30 1011.02 1010.62 1010.15 1009.68 1009.24 1008.88 1008.58 1008.33 1006.92 1006.32 1006.54 1005.94 1005.60 1005.44 1005.78 1006.09 1005.93 1006.19 1006.47 1007.23 1008.53 1009.30 1009.57 1009.97 1011.06 1011.48 1011.88 1012.25 1012.64 1013.22 1013.81
1012.59 1012.60 1012.70 1012.85 1012.60 1011.76 1010.33 1009.55 1010.94 1011.31 1011.42 1011.68 1011.76 1011.84 1011.90 1011.90 1011.90 1011.48 1011.07 1010.54 1010.21 1009.50 1008.81 1008.58 1008.36 1008.33 1006.65 1006.72 1006.17 1005.45 1005.96 1006.08 1006.17 1006.24 1006.17 1006.82 1007.38 1008.34 1009.63 1009.50 1009.78 1010.37 1011.43 1011.82 1012.06 1012.42 1013.04 1013.48 1014.09
1013.99 1013.91 1014.47 1014.67 1014.36 1013.77 1013.06 1011.27 1011.55 1011.77 1011.93 1012.11 1012.01 1011.92 1011.92 1012.07 1011.81 1011.37 1010.92 1010.65 1010.04 1009.29 1008.48 1008.09 1007.92 1008.09 1007.45 1007.19 1006.94 1006.49 1006.48 1006.56 1006.68 1006.72 1006.95 1007.43 1007.60 1007.91 1008.97 1009.88 1010.42 1010.93 1011.61 1011.84 1012.27 1012.76 1013.47 1014.01 1014.48
Thickness
5786 5792 5793 5787 5760 5774 5779 5780 5800 5792 5796 5808 5808 5802 5797 5804 5793 5774 5802 5806 5809 5802 5797 5789 5784 5780 5776 5773 5770 5768 5766 5764 5762 5761 5759 5756 5754 5754 5753 5750 5747 5747 5746 5745 5744 5744 5743 5742 5741
5790 5791 5790 5783 5763 5770 5782 5794 5784 5796 5801 5806 5806 5805 5801 5792 5810 5800 5800 5803 5805 5802 5797 5790 5782 5778 5774 5770 5766 5764 5762 5759 5757 5756 5755 5753 5751 5749 5749 5746 5744 5743 5743 5743 5741 5740 5739 5738 5737
5792 5794 5778 5775 5778 5772 5780 5790 5793 5794 5802 5798 5797 5805 5801 5793 5805 5805 5807 5803 5801 5798 5795 5789 5779 5775 5771 5767 5764 5760 5758 5755 5754 5752 5750 5747 5746 5745 5744 5742 5740 5739 5739 5738 5738 5737 5735 5736 5733
5789 5789 5786 5766 5773 5783 5785 5790 5789 5789 5796 5798 5798 5788 5802 5805 5802 5805 5803 5800 5797 5794 5791 5781 5775 5769 5766 5762 5759 5757 5754 5750 5748 5746 5745 5745 5742 5739 5738 5737 5736 5735 5734 5734 5732 5731 5731 5731 5730
5792 5786 5770 5770 5776 5781 5788 5787 5786 5783 5789 5791 5792 5787 5789 5795 5800 5801 5797 5796 5792 5790 5787 5776 5769 5764 5761 5759 5753 5750 5749 5747 5744 5741 5741 5741 5738 5737 5735 5732 5731 5729 5729 5729 5729 5727 5727 5725 5725
5776 5780 5770 5771 5778 5782 5788 5789 5787 5785 5791 5793 5787 5788 5787 5798 5795 5794 5795 5792 5793 5787 5784 5777 5765 5759 5757 5754 5751 5748 5746 5744 5740 5737 5735 5735 5735 5734 5731 5729 5726 5724 5725 5723 5722 5722 5723 5720 5719
5765 5766 5766 5768 5771 5775 5783 5789 5786 5779 5782 5782 5786 5777 5792 5792 5794 5797 5796 5795 5790 5786 5778 5772 5761 5756 5752 5750 5748 5747 5743 5740 5737 5735 5733 5731 5730 5728 5728 5725 5723 5719 5719 5718 5716 5717 5715 5716 5715
5767 5764 5763 5769 5766 5765 5775 5777 5776 5773 5776 5785 5787 5775 5775 5787 5793 5793 5792 5788 5784 5781 5773 5768 5762 5755 5751 5747 5743 5741 5738 5736 5732 5730 5728 5726 5726 5725 5721 5720 5719 5717 5715 5714 5713 5711 5710 5711 5710
5768 5750 5753 5760 5754 5763 5768 5763 5776 5777 5765 5771 5775 5773 5782 5782 5780 5778 5776 5777 5774 5772 5771 5768 5763 5757 5749 5745 5740 5734 5733 5730 5728 5727 5727 5725 5726 5724 5721 5718 5716 5713 5712 5710 5708 5706 5706 5705 5704
5753 5747 5757 5760 5760 5756 5759 5758 5762 5759 5765 5764 5768 5781 5784 5780 5774 5770 5765 5764 5763 5760 5761 5761 5759 5758 5754 5749 5741 5731 5731 5726 5726 5727 5727 5725 5730 5729 5722 5717 5714 5709 5707 5704 5703 5701 5700 5703 5706
5756 5744 5754 5756 5755 5756 5753 5754 5764 5753 5747 5759 5757 5762 5768 5769 5770 5770 5769 5770 5762 5760 5755 5753 5752 5749 5746 5746 5744 5738 5735 5731 5727 5727 5727 5725 5727 5724 5722 5713 5711 5710 5705 5701 5699 5698 5699 5705 5704
5736 5752 5747 5746 5747 5740 5738 5749 5745 5750 5750 5760 5759 5755 5754 5754 5759 5763 5766 5767 5766 5765 5757 5750 5747 5745 5744 5741 5737 5731 5730 5728 5727 5727 5722 5718 5720 5719 5718 5714 5712 5710 5706 5704 5701 5698 5702 5701 5699
5740 5746 5744 5747 5741 5739 5743 5738 5740 5743 5751 5753 5751 5748 5748 5749 5751 5756 5757 5759 5761 5760 5756 5746 5741 5738 5736 5736 5732 5727 5730 5724 5723 5722 5716 5713 5714 5712 5713 5710 5711 5708 5703 5701 5700 5694 5692 5686 5693
5743 5737 5737 5740 5737 5736 5730 5733 5734 5744 5746 5741 5743 5743 5745 5743 5744 5745 5746 5748 5750 5751 5749 5749 5739 5734 5731 5729 5733 5724 5723 5726 5724 5720 5713 5712 5710 5706 5707 5707 5708 5706 5704 5697 5693 5690 5688 5688 5693
5729 5721 5734 5738 5742 5731 5727 5720 5724 5738 5736 5731 5734 5737 5739 5736 5733 5734 5739 5734 5738 5742 5743 5741 5735 5739 5728 5727 5723 5721 5719 5720 5719 5716 5714 5713 5711 5704 5704 5705 5703 5700 5695 5689 5688 5688 5687 5687 5691
5718 5725 5713 5728 5727 5725 5713 5714 5735 5734 5725 5722 5725 5725 5724 5719 5718 5719 5716 5719 5723 5724 5726 5732 5734 5732 5727 5724 5722 5716 5716 5713 5712 5712 5710 5707 5705 5701 5700 5698 5696 5694 5687 5672 5684 5685 5683 5686 5687
5728 5713 5719 5723 5726 5712 5706 5709 5723 5724 5719 5713 5714 5713 5708 5701 5701 5698 5698 5701 5705 5709 5711 5713 5720 5721 5723 5723 5721 5713 5711 5710 5708 5708 5707 5704 5699 5697 5692 5690 5690 5690 5684 5678 5679 5684 5681 5684 5680
5710 5708 5718 5713 5717 5707 5699 5704 5709 5712 5710 5706 5705 5699 5690 5683 5680 5683 5683 5686 5690 5692 5697 5699 5703 5709 5716 5718 5713 5705 5706 5703 5704 5702 5701 5698 5693 5692 5688 5688 5687 5684 5677 5672 5676 5675 5679 5679 5675
5697 5689 5689 5705 5708 5695 5689 5693 5698 5702 5698 5691 5689 5677 5669 5665 5667 5666 5665 5669 5672 5678 5682 5686 5688 5693 5702 5707 5706 5698 5696 5694 5690 5695 5693 5690 5687 5686 5686 5688 5687 5685 5675 5669 5671 5674 5671 5669 5668
5678 5673 5678 5692 5693 5676 5674 5677 5685 5688 5686 5675 5659 5651 5643 5643 5646 5648 5648 5651 5654 5656 5660 5667 5675 5682 5689 5697 5701 5701 5695 5693 5689 5688 5686 5684 5683 5681 5680 5678 5677 5676 5671 5663 5663 5664 5663 5660 5660
5668 5661 5664 5660 5669 5669 5664 5670 5676 5666 5655 5643 5638 5630 5624 5622 5623 5627 5631 5634 5638 5642 5644 5650 5658 5668 5677 5684 5693 5693 5688 5687 5685 5679 5678 5681 5677 5673 5673 5673 5670 5670 5666 5656 5657 5657 5652 5649 5649
5650 5662 5655 5648 5638 5633 5661 5636 5659 5650 5634 5624 5621 5612 5608 5608 5611 5616 5616 5617 5622 5626 5633 5638 5642 5649 5668 5673 5680 5680 5678 5677 5682 5677 5674 5673 5670 5666 5667 5666 5667 5663 5657 5653 5650 5650 5647 5646 5638
5641 5642 5629 5627 5621 5618 5639 5622 5640 5661 5638 5603 5601 5596 5593 5593 5596 5599 5601 5604 5608 5611 5617 5626 5632 5640 5647 5663 5669 5669 5663 5672 5676 5671 5665 5666 5665 5661 5659 5661 5660 5658 5650 5649 5647 5646 5645 5645 5638
5626 5613 5610 5609 5606 5593 5621 5617 5626 5634 5633 5592 5584 5581 5576 5576 5577 5581 5586 5592 5595 5598 5601 5609 5618 5624 5633 5643 5659 5663 5660 5660 5661 5663 5660 5660 5659 5657 5653 5653 5653 5652 5647 5645 5642 5640 5640 5636 5633
5599 5584 5570 5573 5587 5592 5621 5609 5624 5592 5587 5580 5567 5562 5560 5561 5563 5565 5571 5577 5583 5586 5588 5592 5602 5611 5619 5627 5634 5650 5657 5658 5657 5657 5658 5655 5650 5647 5646 5646 5646 5643 5642 5638 5636 5634 5633 5630 5624
5584 5576 5559 5544 5563 5580 5608 5571 5593 5568 5563 5558 5551 5548 5549 5547 5549 5549 5556 5562 5569 5574 5577 5580 5588 5599 5607 5613 5621 5633 5644 5646 5647 5650 5652 5648 5642 5641 5638 5638 5637 5636 5636 5632 5630 5629 5627 5621 5618
5568 5558 5560 5541 5553 5548 5565 5583 5553 5549 5542 5540 5539 5536 5533 5533 5535 5538 5544 5550 5557 5563 5568 5572 5577 5586 5598 5604 5612 5621 5625 5630 5634 5633 5635 5625 5635 5625 5631 5631 5630 5630 5628 5625 5625 5623 5620 5615 5612
5531 5545 5530 5535 5506 5522 5551 5568 5543 5523 5526 5524 5525 5522 5521 5520 5521 5527 5532 5539 5547 5554 5560 5566 5571 5575 5594 5602 5603 5610 5616 5621 5621 5623 5629 5632 5634 5600 5614 5614 5620 5623 5616 5618 5618 5617 5615 5610 5607
5520 5516 5517 5514 5516 5504 5519 5542 5515 5509 5509 5507 5509 5508 5506 5507 5508 5515 5522 5530 5536 5546 5556 5559 5564 5568 5586 5588 5598 5605 5607 5609 5614 5618 5622 5619 5615 5610 5606 5610 5613 5612 5606 5610 5612 5611 5606 5604 5600
5496 5496 5493 5475 5485 5485 5484 5509 5503 5498 5496 5496 5496 5495 5496 5495 5499 5506 5512 5517 5527 5538 5549 5557 5561 5563 5571 5578 5585 5592 5596 5599 5604 5607 5609 5608 5609 5611 5607 5604 5604 5603 5601 5605 5606 5603 5599 5595 5592